Погода в Карбанах

Россия / Тюменская область     57°13′46″N   66°59′42″E
темп.,
°C
ветер,
м/с
пор.,
м/с
влажн.,
%
обл.,
%
осадки,
мм/ч
давл.,
гПа
погр.,
м
14 мая, пт
пт1423:00+16всв36555 0.0 1025106
02:00+13в22555 0.0 102626
05:00+12ююв22615 0.0 102724
08:00+18ююз23428 0.0 1027358
11:00+24юз453541 0.0 1026992
14:00+28юз58305 0.0 10233009
17:00+29зюз582518 0.0 10212758
20:00+24зюз363940 0.1 102098
15 мая, сб
сб1523:00+20зюз35505 0.1 102061
02:00+18з311575 0.0 1020217
05:00+17зюз386698 0.0 1020154
08:00+23зюз46425 0.0 1020379
11:00+28з573145 0.0 10191787
14:00+30з6825100 0.0 10172750
17:00+30зюз61024100 0.0 10163334
20:00+25з410355 0.0 1015285
16 мая, вс
вс1623:00+20ссв475399 0.0 1017185
02:00+17ююз22745 0.4 101711
05:00+17зюз227217 0.4 101733
08:00+23зюз354999 0.0 1017373
11:00+28з693580 0.0 10161626
14:00+32з7112015 0.0 10152553
17:00+32з612201 0.0 10143695
20:00+27з512245 0.0 1014365
17 мая, пн
пн1723:00+21зюз38365 0.0 1014120
02:00+19з39430 0.0 1014161
05:00+18з37525 0.0 1015132
08:00+24зюз47414 0.0 1015369
11:00+29з69286 0.0 10142658
14:00+31з782063 0.0 10133855
17:00+31з692136 0.0 10113578
20:00+24ссв464246 0.0 1011164
18 мая, вт
вт1823:00+16вюв358887 2.3 1013220
02:00+15юз25908 0.0 101394
05:00+15з38886 0.0 1013225
08:00+19ссз3568100 0.0 1012541
11:00+22сз5656100 0.5 10131483
14:00+19с676974 2.4 10141135
17:00+17с676996 2.6 10161062
20:00+12св5878100 0.0 1017813